[[{"header":{"parameterUnit":"m.s-1","parameterCategory":1,"la1":30.2992,"la2":30.254,"lo1":-89.0895,"lo2":-89.0443,"dy":0.0025,"dx":0.0025,"nx":19,"ny":19,"refTime":"2026-04-05T09:00:00:Z","depth":0,"parameterNumber":2,"parameterNumberName":"U-component_of_WINDS"},"data":[0,0,0,0.0564,0.0564,0.0564,0.0564,0.0559,0.0559,0,0,0,0,0,0,0,0,0,0,0,0.0559,0.0559,0.0564,0.0564,0.0564,0.0564,0.0559,0.0559,0,0,0,0,0,0,0,0,0,0,0,0.0559,0.0559,0.0559,0.0564,0.0564,0.0564,0.0559,0.0561,0,0,0,0,0,0,0,0,0,0,0.0561,0.0552,0.0559,0.0559,0.0563,0.0564,0.0564,0.0561,0.056,0.0555,0,0.0549,0,0.0554,0.0558,0.0558,0,0,0,0.0567,0.0552,0.0557,0.0559,0.0563,0.0564,0.0565,0.0561,0.056,0.0555,0.0549,0.0549,0.0554,0.0558,0.0558,0.0517,0.0517,0,0,0.0567,0.0557,0.0557,0.0556,0.0556,0.0565,0.0565,0.0561,0.0554,0.0549,0.0549,0.0554,0.0558,0.0557,0.0518,0.0517,0,0,0,0.0564,0.0556,0.0561,0.0556,0.0557,0.0565,0.0565,0.0554,0.0557,0.0549,0.0554,0.0558,0.0557,0.0518,0.0518,0.0491,0,0,0,0.0565,0.0555,0.0561,0.0555,0.0557,0.0555,0.0558,0.0557,0.0557,0.0554,0.0557,0.0557,0.0519,0.0518,0.0492,0.0479,0,0,0,0.056,0.0555,0.0553,0.0554,0.0554,0.0556,0.0558,0.0557,0.0559,0.0558,0.0557,0.0519,0.0518,0.0493,0.0481,0.0465,0,0,0,0.0553,0.0529,0.0553,0.0528,0.0554,0.0539,0.0558,0.0548,0.0543,0.0557,0.0518,0.0518,0.0494,0.0483,0.0467,0.0449,0.0441,0,0,0.0517,0.0524,0.0511,0.0532,0.051,0.054,0.0515,0.052,0.0529,0.0521,0.052,0.0492,0.0481,0.0465,0.0401,0.0395,0,0,0,0.0496,0.0486,0.0482,0.0478,0.0482,0.0484,0.0495,0.0497,0.0491,0.0523,0.0482,0.0477,0.0468,0.0459,0.0454,0.0447,0.0514,0.0514,0.0514,0.043,0.0443,0.0421,0.0435,0.0431,0.0443,0.0441,0.0446,0.046,0.0451,0.0448,0.0407,0.0397,0.0393,0.0386,0.0441,0.044,0.044,0.044,0.0378,0.0365,0.0387,0.0373,0.0387,0.0376,0.0387,0.0398,0.039,0.041,0.0403,0.0423,0.0386,0.038,0.0438,0.0439,0.0439,0.0439,0.0439,0.0335,0.0331,0.0335,0.0331,0.0326,0.0341,0.0333,0.0347,0.036,0.0353,0.0351,0.0352,0.0353,0.0351,0.0351,0.0351,0.0351,0.0351,0.0351,0.0288,0.0293,0.0284,0.0287,0.0287,0.0288,0.0301,0.0301,0.0305,0.0316,0.0316,0.0331,0.038,0.0392,0.0349,0.0349,0.0349,0.035,0.035,0.0228,0.0244,0.023,0.0229,0.0235,0.0229,0.0248,0.0247,0.025,0.0245,0.0263,0.0297,0.0305,0.031,0.0319,0.026,0.026,0.026,0.026,0.0191,0.0197,0.0186,0.0184,0.0185,0.0201,0.0184,0.0195,0.0208,0.0211,0.0222,0.0236,0.024,0.0246,0.0252,0.0261,0.0188,0.0188,0.0188,0.0154,0.0161,0.0144,0.0158,0.0164,0.0169,0.0154,0.0152,0.017,0.0185,0.0213,0.0216,0.0239,0.0246,0.026,0.0268,0.0285,0,0]},{"header":{"parameterUnit":"m.s-1","parameterCategory":1,"la1":30.2992,"la2":30.254,"lo1":-89.0895,"lo2":-89.0443,"dy":0.0025,"dx":0.0025,"nx":19,"ny":19,"refTime":"2026-04-05T09:00:00:Z","depth":0,"parameterNumber":3,"parameterNumberName":"V-component_of_WINDS"},"data":[0,0,0,-5.2339,-5.2341,-5.2441,-5.2441,-5.2566,-5.2567,0,0,0,0,0,0,0,0,0,0,0,-5.2312,-5.2313,-5.2339,-5.2342,-5.2441,-5.2441,-5.2566,-5.2567,0,0,0,0,0,0,0,0,0,0,0,-5.2312,-5.2313,-5.2314,-5.2342,-5.244,-5.2441,-5.2565,-5.249,0,0,0,0,0,0,0,0,0,0,-5.2394,-5.2373,-5.2313,-5.2314,-5.2343,-5.244,-5.2441,-5.2487,-5.2495,-5.2521,0,-5.2549,0,-5.256,-5.2576,-5.2576,0,0,0,-5.2338,-5.2366,-5.2391,-5.2315,-5.2343,-5.244,-5.2395,-5.2491,-5.2501,-5.2532,-5.2551,-5.2555,-5.2563,-5.2576,-5.2577,-5.275,-5.2751,0,0,-5.2333,-5.233,-5.2384,-5.2397,-5.2386,-5.2392,-5.2398,-5.2497,-5.2515,-5.2551,-5.2558,-5.2565,-5.2577,-5.2578,-5.2749,-5.275,0,0,0,-5.2319,-5.2327,-5.2349,-5.2392,-5.241,-5.2395,-5.2402,-5.2511,-5.2518,-5.256,-5.2566,-5.2578,-5.258,-5.2748,-5.2749,-5.2795,0,0,0,-5.2316,-5.2319,-5.2347,-5.2346,-5.2409,-5.2463,-5.2414,-5.2512,-5.2523,-5.2565,-5.2578,-5.2581,-5.2747,-5.2748,-5.2792,-5.2817,0,0,0,-5.2305,-5.2317,-5.2333,-5.2346,-5.2389,-5.2461,-5.2474,-5.2514,-5.2527,-5.2576,-5.2581,-5.2746,-5.2748,-5.2789,-5.2811,-5.2862,0,0,0,-5.2291,-5.237,-5.2334,-5.2425,-5.2388,-5.2491,-5.2474,-5.2549,-5.2597,-5.2579,-5.2747,-5.2749,-5.2788,-5.2808,-5.2858,-5.2903,-5.2922,0,0,-5.2389,-5.2382,-5.2436,-5.2406,-5.2515,-5.2475,-5.2589,-5.2633,-5.2637,-5.2711,-5.2715,-5.2793,-5.2811,-5.2861,-5.303,-5.3045,0,0,0,-5.2466,-5.2505,-5.2534,-5.2582,-5.262,-5.2654,-5.2682,-5.2698,-5.2761,-5.2676,-5.2825,-5.2836,-5.2865,-5.2886,-5.2899,-5.2924,-5.2759,-5.2759,-5.2759,-5.26,-5.2606,-5.2695,-5.2713,-5.2759,-5.2788,-5.2825,-5.2851,-5.284,-5.2876,-5.2897,-5.3,-5.3025,-5.3034,-5.306,-5.2922,-5.2922,-5.2922,-5.2922,-5.2744,-5.2799,-5.2787,-5.2869,-5.2874,-5.2941,-5.2972,-5.2962,-5.3024,-5.2983,-5.3009,-5.2964,-5.3051,-5.3074,-5.2926,-5.2925,-5.2925,-5.2924,-5.2924,-5.2831,-5.2859,-5.2881,-5.2952,-5.3005,-5.3019,-5.308,-5.3081,-5.3081,-5.3107,-5.313,-5.3129,-5.3127,-5.3118,-5.3119,-5.3119,-5.3119,-5.312,-5.312,-5.2913,-5.2936,-5.299,-5.304,-5.3071,-5.3112,-5.3143,-5.3173,-5.3205,-5.3201,-5.3201,-5.3186,-5.306,-5.3027,-5.3125,-5.3124,-5.3124,-5.3123,-5.3123,-5.3055,-5.3024,-5.3106,-5.3139,-5.3197,-5.325,-5.3252,-5.3312,-5.3337,-5.3366,-5.3347,-5.3254,-5.3245,-5.3234,-5.3208,-5.3347,-5.3347,-5.3347,-5.3347,-5.3128,-5.3125,-5.3211,-5.3262,-5.3312,-5.3323,-5.3413,-5.3438,-5.3458,-5.3473,-5.3453,-5.3418,-5.3408,-5.3405,-5.3391,-5.3366,-5.3542,-5.3542,-5.3542,-5.3215,-5.3218,-5.3296,-5.332,-5.3366,-5.3405,-5.349,-5.3546,-5.3562,-5.355,-5.3485,-5.3476,-5.342,-5.3401,-5.3386,-5.3365,-5.3319,0,0]}]]